Location: Holiday Acres Laynes 2 Mobile Home Park
(26.7249°N, 81.8671°W)
Time: 06:44:42
(UTC+00:00)

Cosmos 405 Rocket - Pass Details

Date: 25 November 2020
Orbit: 489 x 553 km, 81.3° (Epoch: 21 January)

Event Time Altitude Azimuth Distance (km) Brightness Sun altitude
Rises 22:49:14 0° 351° (N) 2,675 6.2 -3.9°
Reaches altitude 10° 22:51:22 10° 351° (N) 1,792 5.3 -4.4°
Maximum altitude 22:55:19 80° 264° (W) 554 3.0 -5.2°
Drops below altitude 10° 22:59:18 10° 177° (S) 1,812 5.7 -6.0°
Sets 23:01:29 0° 176° (S) 2,707 6.6 -6.5°
